Вернуться в каталог

MARS 2020

АктивенНаукаMEO
NORAD 45983·PAYLOAD·🇺🇸 United States

Запущен Jul 30, 2020 с Cape Canaveral Space Force Station

Loading…

Ближайшие Пролёты (ближайшие 24 часа)

TLE

УстаревшееSource: Space-Track

Эпоха: Jul 30, 2020, 13:39 UTC

1 45983U 20052A   20212.56905538 -.00000119  00000-0  00000+0 0  9997
2 45983  32.2087 317.6209 0065000 265.1078 118.6367  1.42484766    16

Отслеживайте MARS 2020 в реальном времени с AllMySat

Download on the App Store